{"data":{"norad_id":61223,"intl_designator":"2024-172D","name":"KINEIS-3A","alt_names":[],"object_type":"PAYLOAD","status":"ACTIVE","operator":null,"country":"FR","launch_date":"2024-09-20","launch_site_code":"RLLB","launch_vehicle":null,"mission":null,"orbit_class":"UNKNOWN","rcs_meters":null,"size_class":null,"mass_kg":null,"dimensions":null,"purposes":[],"wikipedia_slug":null,"has_3d_model":false,"image_url":null,"decayed_at":null,"tle_current":{"epoch":"2026-09-22T11:43:44.509440Z","epoch_age_seconds":122867,"freshness":"FRESH","line1":"1 61223U 24172D   26265.48870960  .00001183  00000+0  19480-3 0  9990","line2":"2 61223  98.0400 354.4247 0003039 123.8459 236.3038 14.72345649107090","mean_motion":14.72345649,"eccentricity":0.0003039,"inclination_deg":98.04,"raan_deg":354.4247,"arg_perigee_deg":123.8459,"mean_anomaly_deg":236.3038,"bstar":0.0001948,"rev_number":10709,"period_min":97.803121228906,"perigee_km":651.45287160566,"apogee_km":655.72675516283,"semimajor_km":7031.7268133842,"source":"CELESTRAK","updated_at":"2026-09-23T09:00:20.854953Z"}}}